Regional Weather Roundup
Issued by NWS Green Bay, WI

Home | Current Version | Previous Version | Text Only | Print | Product List | Glossary On
Versions: 1 2 3 4 5 6 7 8 9 10 11 12 13 14 15 16 17 18 19 20 21 22 23 24 25 26 27 28 29 30 31 32 33 34 35 36 37 38 39 40 41 42 43 44 45 46 47 48 49 50
000
ASUS43 KGRB 221111
RWRGRB

NORTH-CENTRAL AND NORTHEAST WISCONSIN REGIONAL WEATHER ROUNDUP
NATIONAL WEATHER SERVICE GREEN BAY WI
500 AM CST WED NOV 22 2017

WIZ005-009-010>012-018-019-221200-
NORTH CENTRAL WISCONSIN

CITY           SKY/WX    TMP DP  RH WIND       PRES   REMARKS
IRONWOOD       FLURRIES  17  12  80 SW12      30.24R WCI   4
MANITOWISH WTR FLURRIES  16  12  84 W5        30.20F WCI   9
ARBOR VITAE    FLURRIES  19  14  79 W5        30.20F
EAGLE RIVER    FLURRIES  18  12  77 W3        30.19F
LAND O LAKES   FLURRIES  18  14  85 W3        30.19F
RHINELANDER    CLOUDY    18  12  77 NW3       30.21S
PHILLIPS       CLOUDY    14  10  83 CALM      30.24S
ANTIGO         CLOUDY    17  11  79 W7        30.22F WCI   7
TOMAHAWK       CLOUDY    14   9  79 CALM      30.25S
MERRILL        CLOUDY    17  10  75 CALM      30.25S
$$

WIZ013-073-221200-
NORTHEAST WISCONSIN

CITY           SKY/WX    TMP DP  RH WIND       PRES   REMARKS
IRON MOUNTAIN  CLOUDY    22  13  68 NW5       30.21R
MARINETTE      CLOUDY    25  14  63 VRB5      30.28R
OCONTO         CLOUDY    25  12  59 NW6       30.29R
$$

WIZ017-030-035>037-045-221200-
CENTRAL WISCONSIN

CITY           SKY/WX    TMP DP  RH WIND       PRES   REMARKS
MEDFORD        CLOUDY    16   9  71 N5        30.26R WCI   9
WAUSAU         CLOUDY    17  10  74 NW5       30.25F WCI  10
MOSINEE        CLOUDY    18  12  79 NW5       30.28S
MARSHFIELD     CLOUDY    16   8  71 NW5       30.27R WCI   9
WISC RAPIDS    CLOUDY    15   8  73 N6        30.31S WCI   6
STEVENS POINT  CLOUDY    17   9  70 NW3       30.30R
WAUPACA        CLOUDY    20  13  73 W5        30.31R
SHAWANO        CLOUDY    25  14  64 NW5       30.29R
CLINTONVILLE   CLOUDY    23  12  63 NW5       30.30R
WAUTOMA        CLEAR     15  10  80 CALM      30.32R
$$

WIZ038-039-048-051-221200-
FOX VALLEY

CITY           SKY/WX    TMP DP  RH WIND       PRES   REMARKS
NWS GREEN BAY  CLOUDY    24  17  74 NW8       30.29R
APPLETON       CLOUDY    21  12  68 W7        30.27S
OSHKOSH        CLEAR     17  11  77 W6        30.29R WCI   9
FOND DU LAC    CLEAR     18  10  71 NW6       30.30R WCI  10
$$

WIZ022-050-052-221200-
EAST CENTRAL WISCONSIN

CITY           SKY/WX    TMP DP  RH WIND       PRES   REMARKS
EPHRAIM        CLOUDY    24  11  57 NW9       30.24R
WASHINGTON ISL PTSUNNY   25  14  63 NW14      30.24R
STURGEON BAY   FLURRIES  25  13  60 NW12      30.27R
MANITOWOC      CLOUDY    24  15  68 W7        30.30R
SHEBOYGAN      MOCLDY    20  14  77 NW5       30.29R
$$

LMZ563-521-522-541>543-221200-
LAKESHORE

STATION/POSITION TIME  TEMP    WIND        PRES    VSBY  WAVE
                       AIR SEA DIR/SP/G                  HT/PER
                 (UTC) (F)     (DEG/KT/KT) (MB)    (MI)  (FT/S)
SHEBOYGAN LKSHOR 1100   23     290/  8/  9 1026.9R
KEWAUNEE LKSHORE 1042   26     330/  5/ 12 1024.2R
NORTHPORT PIER   1050   28     320/ 17/ 21 1024.0R
N MID LAKE BUOY  1050   28 47  310/ 16/ 19 1024.8R         4/ 4
MENOMINEE LKSHOR 1042   25     300/  8/ 12 1024.7R
$$



USA.gov is the U.S. government's official web portal to all federal, state and local government web resources and services.